This is the latest recevied weather packets stored in our database for station/object HS5SQI-1. If no packets are shown the sender has not sent any weather packets the latest 10 day(s).
| Time | Temp. | Humidity | Pressure | Rain* | Wind** | Luminosity | Snow |
|---|---|---|---|---|---|---|---|
| 1777913847 | 27.22° C | 99% | 968 hPa | - | - | 0 W/m² | - |
| 1777913225 | 27.22° C | 99% | 968 hPa | - | - | 0 W/m² | - |
| 1777912603 | 27.78° C | 99% | 969 hPa | - | - | 0 W/m² | - |
| 1777911981 | 28.33° C | 99% | 969 hPa | - | - | 0 W/m² | - |
| 1777911359 | 28.89° C | 99% | 968 hPa | - | - | 0 W/m² | - |
| 1777910736 | 28.33° C | 99% | 968 hPa | - | - | 0 W/m² | - |
| 1777910115 | 28.33° C | 99% | 968 hPa | - | - | 0 W/m² | - |
| 1777909493 | 30° C | 99% | 968 hPa | - | - | 0 W/m² | - |
| 1777908870 | 30.56° C | 99% | 967 hPa | - | - | 0 W/m² | - |
| 1777908249 | 30.56° C | 99% | 966 hPa | - | - | 0 W/m² | - |
| 1777907627 | 31.11° C | 99% | 966 hPa | - | - | 0 W/m² | - |
| 1777907005 | 30.56° C | 99% | 966 hPa | - | - | 0 W/m² | - |
| 1777906382 | 30° C | 99% | 966 hPa | - | - | 0 W/m² | - |
| 1777905760 | 29.44° C | 99% | 966 hPa | - | - | 0 W/m² | - |
| 1777905139 | 32.22° C | 90% | 965 hPa | - | - | 0 W/m² | - |
| 1777904517 | 32.78° C | 79% | 965 hPa | - | - | 0 W/m² | - |
| 1777903895 | 33.33° C | 77% | 965 hPa | - | - | 0 W/m² | - |
| 1777903273 | 33.33° C | 77% | 965 hPa | - | - | 0 W/m² | - |
| 1777902650 | 33.33° C | 71% | 965 hPa | - | - | 0 W/m² | - |
| 1777902028 | 33.33° C | 68% | 964 hPa | - | - | 0 W/m² | - |
| 1777901406 | 32.78° C | 66% | 964 hPa | - | - | 0 W/m² | - |
| 1777900784 | 33.33° C | 65% | 964 hPa | - | - | 0 W/m² | - |
| 1777900162 | 33.33° C | 64% | 964 hPa | - | - | 0 W/m² | - |
| 1777899540 | 33.89° C | 62% | 964 hPa | - | - | 0 W/m² | - |
| 1777898918 | 33.89° C | 62% | 963 hPa | - | - | 0 W/m² | - |
* Rain since midnight (hover to see other rain measurements)
** Current wind speed in m/s (hover to see current wind gust speed)